Home > Weather > Angels Camp > Past weeks

Flag for USA Past Weather in Angels Camp, California, USA — Yesterday and Last 2 Weeks

Now
76 °F

Clear.


Feels Like: 78 °F
Forecast: 63 / 108 °F
Wind: 3 mph from West

Location: Modesto City-County-Sham Field

Current Time: Jul 29, 2016 at 5:08:20 AM

Latest Report: Jul 29, 2016 at 3:53 AM


Visibility: 10 mi

Pressure: 29.77 "Hg

Humidity: 40%

Dew Point: 50 °F

Location of Angels CampLocation

Past Weather in Angels Camp — Graph

°F

Angels Camp Temperature Yesterday

Maximum temperature yesterday: 105 °F (at 5:53 PM)
Minimum temperature yesterday: 76 °F (at 4:53 AM)
Average temperature yesterday: 90 °F

High & Low Weather Summary for the Past Weeks

 TemperatureHumidityPressure
High107 °F (Jul 27, 4:53 PM)76% (Jul 24, 5:53 AM)30.07 "Hg (Jul 24, 5:53 AM)
Low60 °F (Jul 18, 5:53 AM)11% (Jul 14, 3:53 PM)29.75 "Hg (Jul 28, 5:53 PM)
Average83 °F33%29.88 "Hg
* Reported Jul 14 3:53 AM — Jul 29 3:53 AM, Angels Camp, Weather by CustomWeather, © 2016

Note: Actual official high and low records may vary slightly from our data, if they occured in-between our weather recording intervals... More about our weather records

Advertising

Angels Camp Weather History for the Previous 24 Hours

Scroll right to see more
 ConditionsComfort  
Time TempWeatherWind HumidityBarometerVisibility
3:53 AM
Fri, Jul 29
76 °FClear.3 mph40%29.77 "Hg10 mi
2:53 AM79 °FClear.3 mph32%29.76 "Hg10 mi
1:53 AM80 °FClear.3 mph31%29.76 "Hg10 mi
12:53 AM82 °FClear.6 mph33%29.76 "Hg10 mi
11:53 PM
Thu, Jul 28
85 °FClear.8 mph27%29.77 "Hg10 mi
10:53 PM87 °FClear.9 mph25%29.78 "Hg10 mi
9:53 PM89 °FClear.7 mph22%29.78 "Hg10 mi
8:53 PM95 °FSunny.7 mph20%29.77 "Hg10 mi
7:53 PM99 °FSunny.8 mph16%29.76 "Hg10 mi
6:53 PM103 °FSunny.7 mph15%29.75 "Hg10 mi
5:53 PM105 °FPassing clouds.13 mph13%29.75 "Hg10 mi
4:53 PM104 °FSunny.7 mph13%29.75 "Hg10 mi
3:53 PM104 °FSunny.10 mph13%29.78 "Hg10 mi
2:53 PM103 °FSunny.12 mph13%29.80 "Hg10 mi
1:53 PM100 °FSunny.8 mph17%29.82 "Hg10 mi
12:53 PM98 °FSunny.10 mph18%29.84 "Hg10 mi
11:53 AM95 °FSunny.9 mph19%29.85 "Hg10 mi
10:53 AM91 °FSunny.7 mph26%29.85 "Hg10 mi
9:53 AM87 °FPleasantly warm.7 mph32%29.85 "Hg10 mi
8:53 AM82 °FSunny.7 mph35%29.85 "Hg10 mi
7:53 AM79 °FSunny.5 mph39%29.85 "Hg10 mi
6:53 AM76 °FClear.6 mph43%29.83 "Hg10 mi
5:53 AM76 °FClear.5 mph47%29.82 "Hg10 mi
Weather by CustomWeather, © 2016

See weather overviewHow to use our weather pages